Theta_e
359 358 357 357 356 356 355 354 354 355 354 354 355 355 355 354 354 355 356 356 356 356 355 353 353 352 351 352 352 351 352 352 351 350 348 347 347 350 353 353 354 354
356 355 354 354 353 353 353 353 353 352 352 353 354 354 354 355 355 355 355 356 356 356 356 355 353 353 352 352 352 352 352 352 352 351 350 348 346 349 352 353 353 354
350 350 349 347 347 348 350 352 352 352 353 353 354 355 355 355 356 356 356 356 357 357 357 356 355 353 352 352 352 351 352 351 352 352 351 348 348 349 351 353 353 354
347 345 342 339 341 344 347 349 350 351 353 353 353 354 354 353 354 355 355 356 357 357 357 357 356 355 353 352 351 351 351 350 351 353 351 350 348 350 352 352 353 354
339 337 337 338 339 341 341 343 344 344 347 349 349 348 348 348 349 351 352 353 355 357 358 358 357 356 355 354 352 351 351 350 350 351 352 351 349 350 352 353 354 353
333 336 338 340 340 339 340 340 340 341 341 342 343 343 343 345 347 349 351 352 355 357 357 358 358 357 356 355 354 351 351 350 350 350 351 351 351 350 351 353 353 353
333 337 338 339 340 341 341 340 340 340 341 342 342 342 344 345 347 348 349 350 352 353 353 354 355 356 357 357 355 354 352 351 351 352 351 350 350 350 351 351 352 353
331 335 338 340 341 341 340 339 339 339 340 342 343 343 344 345 346 348 348 348 349 350 352 352 353 354 356 356 356 355 355 353 353 353 352 350 350 351 351 350 351 352
330 333 336 339 341 341 340 338 337 337 338 340 342 343 343 344 345 346 347 348 349 350 351 353 354 355 354 354 354 355 355 356 355 354 353 352 350 350 350 350 351 351
330 331 334 336 339 340 339 337 337 337 337 338 341 343 344 344 345 346 346 346 348 349 350 351 352 353 353 352 351 351 352 353 353 353 352 353 351 350 350 350 350 350
330 331 332 335 338 340 339 337 337 337 338 339 340 342 342 343 345 346 346 346 347 347 348 350 351 351 351 352 352 351 351 350 351 351 350 350 351 350 350 350 350 350
331 331 332 334 337 339 339 338 338 337 337 337 339 340 341 341 344 345 345 346 347 348 347 349 350 351 351 352 353 354 353 353 353 353 352 351 351 350 350 350 350 350
333 333 333 333 335 337 337 337 337 337 337 338 339 339 340 341 342 342 343 345 347 349 349 349 350 352 352 352 351 351 353 353 354 354 352 352 352 351 351 351 351 350
334 334 334 334 335 335 336 336 337 338 338 339 339 338 339 339 340 341 343 344 345 348 349 350 350 350 351 352 352 352 352 353 354 353 352 352 352 352 352 352 352 350
335 334 335 335 335 335 336 336 337 337 338 338 339 338 337 338 339 340 342 344 345 346 348 348 348 348 348 350 352 352 352 352 353 353 353 352 351 352 353 353 353 352
334 335 335 336 335 336 337 338 337 338 338 339 340 339 337 337 338 339 342 343 344 345 345 346 346 346 347 348 350 351 352 352 352 353 353 352 351 351 353 353 353 353
336 337 336 336 337 337 338 339 340 340 340 339 339 338 336 336 337 339 341 342 344 344 343 343 344 344 346 348 350 351 352 353 352 352 353 353 350 351 352 353 352 353
336 336 335 335 337 339 339 339 340 340 339 337 336 336 336 336 336 337 339 340 343 343 343 343 343 343 345 347 350 351 353 353 354 353 352 353 352 350 351 352 353 354
334 333 333 334 337 338 338 338 337 337 336 335 335 336 337 337 337 337 337 339 341 342 343 344 343 344 345 346 349 350 352 354 354 354 354 353 353 352 351 351 352 354
332 333 334 336 338 339 338 337 336 335 334 335 337 338 339 339 339 338 337 338 340 341 342 343 344 345 346 347 348 349 352 353 354 354 355 354 354 353 352 352 352 353
333 335 337 339 340 339 339 337 335 335 336 337 339 340 341 341 341 341 338 338 339 340 341 343 344 346 347 347 348 348 350 352 354 354 355 355 354 354 353 353 353 353
336 337 338 339 339 338 337 337 336 336 337 339 341 341 342 342 342 341 340 340 341 341 341 342 344 345 347 347 347 348 350 352 353 354 355 355 354 354 354 354 353 353
338 338 338 338 338 338 338 337 338 338 339 340 341 341 342 342 343 342 341 341 343 342 342 342 343 345 346 346 347 347 349 352 353 354 354 354 354 353 353 353 353 354
339 338 339 338 338 338 337 338 339 340 340 340 341 342 342 342 343 343 342 342 343 343 342 342 342 344 345 346 347 347 348 351 353 354 354 353 354 353 353 353 353 353
338 338 338 338 338 338 338 339 339 339 339 340 341 342 342 342 343 343 343 343 343 343 343 342 343 344 344 346 347 346 347 350 353 354 354 353 353 353 353 353 353 352
337 338 338 338 338 338 339 339 339 340 340 341 342 342 342 342 342 343 343 343 344 344 344 343 344 345 345 346 347 347 349 351 352 353 353 353 353 353 353 354 353 352
Wind_Speed
19 21 23 24 25 26 27 27 27 29 29 29 29 29 28 27 26 26 28 28 28 28 29 30 32 33 34 34 34 33 31 29 29 28 27 29 31 27 25 25 25 25
21 22 24 26 28 28 28 27 27 28 29 30 31 30 30 29 28 28 29 29 29 29 28 28 30 32 34 35 36 35 33 31 31 30 27 28 30 30 27 26 26 25
23 25 27 28 29 29 28 27 26 27 29 30 31 31 30 30 29 29 29 31 32 32 31 30 29 31 33 35 36 35 34 32 32 31 29 28 29 30 30 29 28 26
26 27 28 28 27 27 28 29 29 30 32 33 32 31 30 30 30 29 29 30 32 33 33 33 31 30 31 33 35 36 35 33 32 32 32 30 29 30 30 30 30 28
27 28 27 26 25 26 27 28 30 31 32 34 34 34 32 30 28 26 27 29 31 32 33 34 34 33 32 31 33 35 36 35 34 33 34 33 31 31 30 31 32 31
26 26 25 25 25 25 25 26 27 28 29 30 31 32 31 29 27 26 26 27 29 31 32 34 35 35 35 34 33 34 35 36 35 34 34 34 33 33 33 33 34 34
24 24 24 24 23 23 23 24 25 26 27 27 28 29 29 28 27 26 26 27 27 28 30 32 34 35 36 37 35 34 34 34 34 35 36 36 36 36 36 37 37 36
23 23 22 22 22 22 22 23 24 24 25 26 27 27 27 28 27 26 26 27 27 27 27 29 32 33 35 37 37 36 35 34 33 34 36 37 37 38 38 38 39 38
24 23 23 22 22 22 22 23 23 24 24 25 26 26 26 27 27 26 25 26 27 27 27 27 29 31 32 34 35 35 35 34 34 35 36 36 37 39 40 40 41 41
24 24 24 23 22 22 22 23 23 23 24 25 26 26 26 26 27 26 26 26 26 27 27 27 29 30 30 31 33 36 36 36 35 36 36 38 39 39 40 41 41 42
25 26 26 24 23 22 23 24 23 23 24 25 26 26 26 26 27 27 26 26 26 27 27 27 28 31 30 30 34 37 39 39 38 38 38 38 39 40 40 42 42 42
26 26 27 25 24 24 24 25 25 24 24 25 25 26 26 27 28 28 27 26 25 26 26 26 28 30 30 30 33 36 39 40 40 40 40 40 39 39 40 42 44 43
26 27 27 26 26 25 26 26 26 26 25 25 25 26 26 27 28 29 28 27 25 24 25 26 27 28 29 31 31 33 37 40 39 39 40 41 40 40 40 41 43 44
29 29 27 26 26 26 27 27 26 27 27 27 27 27 27 28 29 29 29 27 27 26 26 26 27 28 29 31 32 33 36 39 40 40 41 42 42 42 42 42 43 44
31 29 27 26 26 27 27 27 27 28 28 29 29 29 29 28 28 29 29 29 28 29 29 28 28 29 30 30 32 33 35 37 40 42 43 42 43 43 44 44 45 45
30 28 26 26 26 27 27 27 27 28 29 30 31 31 31 30 28 28 29 30 30 30 31 31 30 30 29 29 31 33 35 36 38 41 42 40 40 42 44 45 47 47
28 27 27 27 27 27 27 28 29 29 30 31 32 33 32 31 30 29 30 31 31 31 32 33 33 31 28 27 29 31 33 35 36 38 39 39 38 39 41 43 46 48
27 28 28 28 27 28 29 30 31 31 32 33 34 33 32 30 30 30 30 31 31 32 32 34 34 32 29 28 28 29 31 34 36 37 38 39 39 38 38 40 44 46
28 28 28 28 28 29 30 31 31 32 33 33 33 32 31 30 30 30 31 31 31 31 32 32 34 33 30 28 28 29 30 32 35 38 39 39 38 37 36 38 41 44
28 27 26 26 27 28 29 30 32 33 32 31 31 31 31 31 31 30 30 30 30 31 31 31 32 32 30 28 28 29 30 31 34 38 39 38 36 36 35 35 38 42
26 26 26 27 27 29 31 32 33 32 31 30 30 30 31 31 31 30 30 30 29 30 31 31 30 31 30 29 29 29 30 30 32 36 37 37 36 35 35 35 37 39
25 25 27 28 29 31 32 33 33 32 31 31 31 31 32 32 31 30 29 29 29 28 30 31 31 30 30 30 30 29 28 28 31 34 36 38 38 37 37 37 38 39
24 26 27 29 30 31 32 32 32 31 31 31 31 32 32 32 32 30 27 27 27 28 29 31 31 29 29 30 31 29 27 27 30 32 36 39 40 39 39 39 39 39
25 26 27 29 30 31 32 31 30 31 32 31 31 32 32 32 32 30 27 26 26 27 28 30 30 28 27 28 29 29 27 27 28 30 35 38 39 39 39 39 39 38
25 26 27 28 30 31 31 31 31 32 33 32 32 31 31 31 30 29 28 26 26 26 27 28 29 28 26 26 27 27 26 25 26 28 33 37 38 37 38 39 39 38
25 26 27 28 30 30 30 30 31 32 33 33 33 31 31 31 29 27 27 27 26 26 27 27 27 27 25 25 25 26 26 24 24 27 30 34 36 36 37 39 40 39
Wind_Direction
281 283 285 289 290 291 293 294 296 296 295 294 292 291 291 292 292 290 287 284 279 275 271 268 266 264 262 260 259 257 258 258 255 251 246 244 243 244 250 253 256 258
280 281 284 287 288 289 291 293 294 293 292 291 289 289 289 289 289 289 288 286 283 278 273 269 265 263 260 257 255 255 256 256 255 253 249 245 242 242 246 250 253 254
280 281 283 285 285 285 286 288 288 286 286 288 287 285 285 285 283 283 284 284 282 280 276 272 266 262 259 255 253 253 253 252 252 251 249 245 242 242 245 249 252 250
282 283 284 285 284 282 280 280 280 279 281 285 288 289 290 288 284 281 282 281 279 277 276 273 269 264 259 255 252 251 251 250 250 250 249 245 242 243 246 249 252 252
283 284 285 286 284 283 281 280 279 278 279 281 284 287 289 289 289 287 286 283 278 274 273 272 270 267 262 257 253 251 250 250 250 248 247 246 244 244 246 249 251 253
280 283 284 285 286 286 285 283 282 281 281 281 282 283 285 286 287 288 288 287 281 273 270 269 268 266 264 260 256 252 250 249 249 247 245 246 245 245 246 247 250 252
282 284 285 286 288 290 289 288 287 285 284 284 284 283 285 286 287 286 286 286 284 277 271 269 266 264 261 259 256 254 252 250 248 246 245 246 245 245 245 246 249 251
289 287 286 287 290 292 295 295 294 291 289 287 285 284 284 285 285 286 284 283 283 282 278 275 270 265 260 257 255 254 254 253 251 248 247 247 246 245 245 245 247 249
294 292 290 289 289 291 296 300 300 297 294 290 288 287 285 284 283 283 281 279 280 281 280 278 273 268 263 260 258 255 253 253 252 250 249 249 247 245 245 245 246 247
298 298 296 290 287 289 295 301 302 301 298 295 292 289 287 286 285 283 281 277 276 276 277 277 273 268 264 260 258 255 253 253 252 249 247 246 246 245 245 245 245 245
301 301 299 294 289 288 292 297 300 301 301 299 296 292 288 286 285 284 283 280 276 273 273 274 272 268 265 260 258 256 254 254 254 252 248 243 242 243 244 245 245 244
305 303 301 296 291 289 291 293 297 301 304 304 301 297 292 287 284 283 282 281 279 274 270 268 268 268 266 263 261 258 254 253 253 253 251 246 242 241 243 245 246 244
308 306 302 296 292 292 292 293 294 298 302 304 303 300 295 290 286 284 283 280 278 274 269 267 267 268 266 262 258 254 251 251 251 250 248 246 244 242 242 244 247 246
310 308 302 296 293 294 295 295 296 299 302 303 303 303 300 294 288 285 283 278 274 270 266 264 264 264 264 262 257 252 249 249 249 247 245 246 246 244 242 243 245 246
309 307 301 297 296 296 297 298 299 301 302 301 301 303 304 300 292 286 282 277 272 269 265 262 260 260 261 261 259 255 250 248 248 247 246 247 246 244 243 243 243 244
306 303 300 299 298 299 300 301 301 301 301 299 298 300 303 302 295 286 280 277 275 272 270 266 261 258 258 260 260 258 254 251 249 247 247 247 245 244 243 242 242 242
302 301 301 302 302 303 303 304 303 300 298 297 297 299 300 299 295 288 280 276 275 275 273 270 265 259 256 256 257 256 254 252 251 248 245 245 245 244 243 242 240 240
302 302 303 303 303 304 304 304 303 299 297 297 297 298 298 295 292 289 283 277 274 274 272 271 269 263 257 254 253 253 253 252 251 250 246 243 243 244 244 242 240 239
303 303 303 302 302 303 302 301 300 298 297 297 296 297 296 293 290 289 285 279 273 271 270 271 271 266 259 254 253 253 255 253 251 250 248 244 244 246 246 244 241 240
305 302 301 300 300 301 300 299 299 299 298 297 297 296 295 293 291 287 284 278 273 269 268 269 270 268 261 254 252 253 255 254 251 249 248 247 246 247 246 245 243 242
304 302 301 301 302 302 300 300 300 300 299 298 298 297 294 292 290 286 281 276 272 269 267 266 266 266 261 254 252 253 254 254 250 246 245 246 245 245 245 243 241 241
305 304 304 304 304 303 302 301 301 300 299 299 299 297 295 292 291 287 279 274 271 268 266 264 263 264 263 257 253 252 252 253 251 245 242 244 244 243 243 242 242 242
308 307 307 306 306 305 304 303 303 301 300 300 298 296 295 294 292 287 278 270 268 266 264 263 262 263 264 259 254 251 251 253 253 247 241 241 242 242 242 243 243 243
310 309 309 309 308 307 306 304 303 302 301 301 298 295 295 294 290 285 277 267 266 265 263 263 263 262 262 258 254 251 250 250 254 253 245 240 240 239 240 241 243 243
311 310 310 310 309 307 306 304 303 303 303 303 299 295 294 293 288 281 275 268 265 266 265 263 263 262 260 257 253 251 249 247 253 255 247 239 239 239 238 239 240 239
312 311 310 309 307 306 306 305 305 307 308 306 302 297 294 292 286 278 273 269 267 268 266 262 261 261 260 256 252 248 245 243 247 250 243 237 238 240 239 240 239 237